EW6790 Weather Reports


time (UTC)temp
F
wind
direction
speed
knots
gust
knots
rain 1hr
in
rain 24hr
in
rain mn
in
humidity
%
barometer
mb
20260503213015 72 302 3.5 13.0 0.00 0.00 0.00 30 1005.1
20260503211515 72 289 5.2 13.0 0.00 0.00 0.00 30 1005.2
20260503210051 71 21 8.7 15.6 0.00 0.00 0.00 29 1005.5
20260503204551 71 313 4.3 17.4 0.00 0.00 0.00 31 1005.7
20260503203041 71 304 5.2 16.5 0.00 0.00 0.00 32 1005.7
20260503201534 71 317 3.5 13.0 0.00 0.00 0.00 32 1005.7
20260503200011 71 314 7.0 17.4 0.00 0.00 0.00 31 1006.0
20260503194513 70 311 5.2 12.2 0.00 0.00 0.00 33 1005.9
20260503193056 70 16 5.2 14.8 0.00 0.00 0.00 32 1006.1
20260503191554 70 326 7.0 13.9 0.00 0.00 0.00 32 1006.2
20260503190053 70 360 5.2 16.5 0.00 0.00 0.00 31 1006.3
20260503184553 70 332 7.8 16.5 0.00 0.00 0.00 31 1006.3
20260503183051 70 321 6.1 17.4 0.00 0.00 0.00 32 1006.4
20260503181600 69 323 7.0 17.4 0.00 0.00 0.00 31 1006.5
20260503180047 69 302 5.2 16.5 0.00 0.00 0.00 35 1006.5
20260503174546 69 317 9.6 18.2 0.00 0.00 0.00 33 1006.7
20260503173040 68 315 6.1 15.6 0.00 0.00 0.00 35 1006.6
20260503171533 68 302 6.1 14.8 0.00 0.00 0.00 37 1006.7
20260503081534 55 160 14.8 22.6 0.00 0.00 0.00 50 1006.5
20260503071555 56 167 11.3 21.7 0.00 0.00 0.00 47 1008.6
20260503060104 58 169 7.8 12.2 0.00 0.00 0.00 42 1009.3
20260503054547 58 183 4.3 10.4 0.00 0.00 0.00 44 1009.3
20260503053027 58 220 13.0 20.0 0.00 0.00 0.00 43 1009.6
20260503051528 58 202 9.6 15.6 0.00 0.00 0.00 41 1009.4
20260503050008 59 174 9.6 15.6 0.00 0.00 0.00 41 1009.0
20260503044505 58 215 12.2 17.4 0.00 0.00 0.00 41 1009.5
20260503043054 58 203 7.8 12.2 0.00 0.00 0.00 42 1009.8
20260503041544 59 188 8.7 13.0 0.00 0.00 0.00 41 1010.1
20260503040034 59 196 7.8 11.3 0.00 0.00 0.00 42 1010.2
20260503034531 59 203 7.8 12.2 0.00 0.00 0.00 41 1010.2
20260503033050 59 196 8.7 12.2 0.00 0.00 0.00 42 1010.3
20260503031534 59 181 6.1 9.6 0.00 0.00 0.00 41 1010.5
20260503030026 60 207 4.3 7.8 0.00 0.00 0.00 41 1010.8
20260503024523 61 231 8.7 13.0 0.00 0.00 0.00 38 1011.0
20260503023039 61 212 4.3 7.8 0.00 0.00 0.00 38 1011.2
20260503021521 61 246 4.3 7.0 0.00 0.00 0.00 37 1011.4
20260503020001 62 220 4.3 7.0 0.00 0.00 0.00 36 1011.5
20260503014600 62 282 2.6 6.1 0.00 0.00 0.00 37 1011.9
20260503013109 62 213 5.2 8.7 0.00 0.00 0.00 35 1011.6
20260503011554 62 317 4.3 7.8 0.00 0.00 0.00 36 1011.9
20260503010051 63 228 5.2 7.8 0.00 0.00 0.00 35 1011.7
20260503004530 63 224 4.3 7.8 0.00 0.00 0.00 35 1011.7
20260503003029 64 222 3.5 9.6 0.00 0.00 0.00 33 1011.8
20260503001527 64 252 6.1 12.2 0.00 0.00 0.00 33 1011.9
20260503000026 64 235 7.0 13.0 0.00 0.00 0.00 33 1012.0
20260502234523 65 241 8.7 13.9 0.00 0.00 0.00 32 1012.1
20260502233021 65 246 7.0 16.5 0.00 0.00 0.00 32 1012.3
20260502231522 65 266 7.8 16.5 0.00 0.00 0.00 31 1012.5
20260502230020 66 226 6.1 19.1 0.00 0.00 0.00 31 1012.6
20260502224601 66 283 5.2 13.0 0.00 0.00 0.00 31 1012.8
20260502223059 66 268 5.2 13.9 0.00 0.00 0.00 31 1012.9
20260502221541 65 266 7.0 13.9 0.00 0.00 0.00 31 1013.0
20260502220039 66 269 7.0 13.0 0.00 0.00 0.00 30 1013.2
20260502214521 66 281 4.3 13.0 0.00 0.00 0.00 33 1013.5